AirNav  
 
 824 users online  

PAFR Bryant Army Airfield Heliport
Fort Richardson (Anchorage), Alaska, USA

GOING TO FORT RICHARDSON (ANCHORAGE)?


FAA INFORMATION EFFECTIVE 12 OCTOBER 2017

Location

FAA Identifier: FRN
Lat/Long: 61-15-57.2375N / 149-39-11.9075W
61-15.953958N / 149-39.198458W
61.2658993 / -149.6533076
(estimated)
Elevation: 386.8 ft. / 117.9 m (surveyed)
Variation: 19E (2008)
From city: 5 miles NE of FORT RICHARDSON(ANCHORAGE), AK
Time zone: UTC -8 (UTC -9 during Standard Time)
Zip code: 99505

Airport Operations

Airport use: Private use. Permission required prior to landing
Control tower: yes
ARTCC: ANCHORAGE CENTER
FSS: KENAI FLIGHT SERVICE STATION [907-283-8469]
NOTAMs facility: PAFR (NOTAM-D service available)
Attendance: 0730-1730 MON-FRI EXCP HOLS
Pattern altitude: 1786.8 ft. MSL
Wind indicator: yes
Segmented circle: yes
Lights: SS-SR
Beacon: white-green (lighted land airport)
Operates sunset to sunrise.

Airport Communications

CTAF: 125.0
ATIS: 134.25
WX AWOS-3: 118.525 (907-384-0132)
BRYANT GROUND: 121.25 239.25 [1700-0100Z++ MON-FRI EXCP FED HOLS.]
BRYANT TOWER: 125.0 254.35 [1700-0100Z++ MON-FRI EXCP FED HOLS.]
ANCHORAGE APPROACH: 118.6
ANCHORAGE DEPARTURE: 118.6
CLEARANCE DELIVERY: 119.1
AASF OPNS: 64.7
CLASS C: 118.6
PMSV METRO: 346.6
WX ASOS at MRI (6 nm SW): PHONE 907-272-0542
WX AWOS-3P at BCV (10 nm NE): 135.55 (907-688-0826)
WX ASOS at LHD (10 nm SW): PHONE 907-245-1618
WX ASOS at ANC (11 nm SW): 118.4 (907-248-2033)
WX AWOS-3P at IYS (19 nm N): 135.25 (907-373-3801)

Nearby radio navigation aids

VOR radial/distance  VOR name  Freq  Var
TEDr038/10.6ANCHORAGE VOR/DME113.1518E
BGQr135/20.3BIG LAKE VORTAC112.5019E

 
NDB name  Hdg/Dist  Freq  Var  ID
CAMPBELL LAKE045/12.733818ECMQ -.-. -- --.-

Airport Services

Fuel available: B+
Parking: hangars
Airframe service: NONE
Powerplant service: NONE
Bottled oxygen: NONE
Bulk oxygen: NONE

Runway Information

Runway 17/35

Dimensions: 4088 x 100 ft. / 1246 x 30 m
Surface: asphalt
Weight bearing capacity: 
PCN 66 /F/A/W/T
Single wheel: 38.0
Double wheel: 54.0
Runway edge lights: medium intensity
Gradient: NORTH
RUNWAY 17  RUNWAY 35
Latitude: 61-16.282833N61-15.625083N
Longitude: 149-39.061233W149-39.335683W
Elevation: 386.8 ft.365.3 ft.
Gradient: 0.2%0.5% UP
Traffic pattern: leftleft
Runway heading: 172 magnetic, 191 true352 magnetic, 011 true
Displaced threshold: no670 ft.
Declared distances: TORA:4088 TODA:4088 ASDA:4088 LDA:4088TORA:4088 TODA:4088 ASDA:4088 LDA:3418
Markings: basic, in good conditionbasic, in good condition
Visual slope indicator: 4-light PAPI on left (3.50 degrees glide path)
Runway end identifier lights: nono
Touchdown point: yes, no lightsyes, no lights
Obstructions: nonepline, marked, 2000 ft. from runway, 25:1 slope to clear

Airport Ownership and Management from official FAA records

Ownership: U.S. Army
Owner: US GOVT USA
HEADQUARTERS
FT. RICHARDSON, AK 99505
Phone 907-384-7868
Manager: BRYANT ARMY AIRFIELD
47430 WESTBROOK AVE
FT RICHARDSON, AK 99505
Phone 907-428-6561

Airport Operational Statistics

Aircraft based on the field: 70
Single engine airplanes: 15
Multi engine airplanes: 3
Military aircraft: 52
    

Additional Remarks

RECOMMEND VISUAL INSPECTION OF RY.
WILDLIFE OCCASIONALLY ON OR NEAR RY.
TFC PATTERN FOR RWY 17/35 WEST TFC ONLY.
VISUALLY INSPECT RWY WHEN TWR IS CLOSED.
BRYANT TWR - 907-428-6850 (DURING OPERATING HOURS).
RY 17/35 TFC PAT R/W 1100 FT MSL; FIXED WING 1900 FT MSL.
LGTD 180 FT ANTENNAS AT NATIONAL GUARD ARMORY E OF RY 17/35.
ARMY AVIATION SUPPORT FACILITY C907-428-6333.
96 HR PPR FOR SVCS.

Instrument Procedures

NOTE: All procedures below are presented as PDF files. If you need a reader for these files, you should download the free Adobe Reader.

NOT FOR NAVIGATION. Please procure official charts for flight.
FAA instrument procedures published for use between 14 September 2017 at 0901Z and 9 November 2017 at 0900Z.

NOTE: Special Take-Off Minimums/Departure Procedures apply   download (265KB)

Other nearby airports with instrument procedures:

PAED - Elmendorf Air Force Base (5 nm W)
PAMR - Merrill Field Airport (6 nm SW)
PANC - Ted Stevens Anchorage International Airport (11 nm SW)
PAGQ - Big Lake Airport (17 nm N)
PAWS - Wasilla Airport (19 nm N)
 
Loc | Ops | Rwys | IFR | FBO | Links
Com | Nav | Svcs | Stats | Notes

Crowley
 
Area around PAFR (Bryant Army Airfield Heliport)
 
Road maps at: MapQuest Bing Google
 
Aerial photo
No photo
 
Sectional chart

 
Airport distance calculator
Flying to Bryant Army Airfield Heliport? Find the distance to fly.

From to PAFR

Sunrise and sunset
Times for 21-Oct-2017
 Local
(UTC-8)
 Zulu
(UTC)
Morning civil twilight08:1416:14
Sunrise08:5816:58
Sunset18:2802:28
Evening civil twilight19:1303:13

Current date and time
Zulu (UTC)  22-Oct-2017 02:35:04
Local (UTC-8)  21-Oct-2017 18:35:04
 
METAR
PAFR 220214Z AUTO 00000KT 5SM SCT013 OVC024 M04/M08 A2922 RMK AO1
PAED 
4nm W 
220156Z AUTO 00000KT 10SM OVC044 M03/M09 A2922 RMK AO2 UPE01UPB15E23 SLP893 P0000 T10301091 $
PAMR 
6nm SW 
220153Z 00000KT 2SM -SN BR OVC034 M04/M06 A2923 RMK AO2 SNB31 SLP901 P0000 T10441056 $
PABV 
10nm NE 
220156Z AUTO 25005KT 10SM SCT050 OVC060 M02/M08 A2924 RMK AO2 SLP911 T10221083 FZRANO $
PALH 
10nm SW 
220210Z 00000KT 3SM -SN OVC033 M03/M07 A2925 RMK AO2 P0000 T10331067
PANC 
12nm SW 
220217Z VRB05KT 5SM -SN BR BKN033 OVC050 M03/M08 A2923 RMK AO2 P0000 T10281078 $
TAF
PAED 
4nm W 
211900Z 2119/2301 VRB06KT 9999 VCSH BKN070 QNH2923INS BECMG 2201/2202 VRB06KT 9999 VCSH BKN020 610207 QNH2927INS TEMPO 2202/2208 9000 -SN BKN015 BECMG 2211/2212 VRB06KT 9999 NSW BKN020 QNH2937INS TX00/2200Z TNM08/2212Z
PANC 
12nm SW 
220014Z 2200/2306 01005KT 6SM -SN OVC035 TEMPO 2200/2204 3SM -SN OVC025 FM220600 VRB04KT P6SM SCT030 BKN070
NOTAMs
Click for the latest NOTAMs
NOTAMs are issued by the DoD/FAA and will open in a separate window not controlled by AirNav.

 

 
 

Would you like to see your business listed on this page?

 If your business provides an interesting product or service to pilots, flight crews, aircraft, or users of the Bryant Army Airfield Heliport, you should consider listing it here.  To start the listing process, click on the button below
 
Add a business
 

Other Pages about Bryant Army Airfield Heliport

Update a link
 
Copyright © AirNav, LLC. All rights reserved. Privacy Policy  Contact